Regional Weather Roundup
Issued by NWS

Home | Current Version | Previous Version | Graphics & Text | Print | Product List | Glossary Off
Versions: 1 2 3 4 5 6 7 8 9 10 11 12 13 14 15 16 17 18 19 20 21 22 23 24 25 26 27 28 29 30 31 32 33 34 35 36 37 38 39 40 41 42 43 44 45 46 47 48 49 50

786
ASUS43 KMKX 221500
RWRWI

WISCONSIN REGIONAL WEATHER ROUNDUP
NATIONAL WEATHER SERVICE MILWAUKEE/SULLIVAN WI
1000 AM CDT FRI SEP 22 2017

NOTE: "FAIR" INDICATES FEW OR NO CLOUDS BELOW 12,000 FEET WITH NO
SIGNIFICANT WEATHER AND/OR OBSTRUCTIONS TO VISIBILITY.

WIZ001-002-006>008-014>016-023>028-221600-
NORTHWEST WISCONSIN

CITY           SKY/WX    TMP DP  RH WIND       PRES   REMARKS
SUPERIOR ARPT  LGT RAIN  65  65  99 SE15G24   29.80F
ASHLAND        LGT RAIN  65  64  97 W18G24    30.03R
HAYWARD        TSTM      66  64  93 NE13G25   29.99R VSB 3/4
SIREN          RAIN      69  67  94 NE6       29.93R
CUMBERLAND     PTSUNNY   72  68  88 S6        29.91R
RICE LAKE      PTSUNNY   75  69  80 S9        29.93R THUNDER HAZE
CHETEK         PTSUNNY   76  71  85 S9        29.89F
LADYSMITH      CLOUDY    76  69  79 SE7       29.94S
EAU CLAIRE     MOSUNNY   79  70  74 S14       29.90F HX  82
MENOMONIE      PTSUNNY   81  71  71 S10       29.89S HX  85
NEW RICHMOND   CLOUDY    76  69  77 S7        29.88S
OSCEOLA        CLOUDY    77  69  78 CALM      29.92R
$$

WIZ003>005-009-010-017-018-221600-
NORTH CENTRAL WISCONSIN

CITY           SKY/WX    TMP DP  RH WIND       PRES   REMARKS
MANITOWISH WTR PTSUNNY   72  72 100 S7        29.96F
ARBOR VITAE    CLOUDY    77  72  83 SW8       29.98F
WOODRUFF       CLOUDY    77  72  83 SW8       29.98F
RHINELANDER    CLOUDY    78  70  76 SW9G17    29.99F HX  80
EAGLE RIVER    CLOUDY    75  68  78 S7        29.97F
LAND O LAKES   CLOUDY    76  68  76 SW7       30.00F
PHILLIPS       CLOUDY    73  70  91 S6        29.94F
TOMAHAWK       CLOUDY    74  68  79 CALM      29.98F
MEDFORD        CLOUDY    76  69  78 S9        29.97S
MERRILL        CLOUDY    79  70  74 S6        29.98F HX  82
$$

WIZ029-030-035-036-043>047-221600-
CENTRAL WISCONSIN

CITY           SKY/WX    TMP DP  RH WIND       PRES   REMARKS
WAUSAU         SUNNY     78  69  73 S7        29.97F HX  80
MOSINEE        MOSUNNY   79  70  73 S10       30.00F HX  81
MARSHFIELD     SUNNY     79  68  69 S10       29.97F HX  81
STEVENS POINT  SUNNY     76  69  80 S10       30.00F
WAUPACA        MOSUNNY   80  71  73 S7        30.01S HX  83
WAUTOMA        SUNNY     79  70  74 S7        30.02S HX  82
WISC RAPIDS    SUNNY     80  70  71 SW12      30.00F HX  83
CAMP DOUGLAS   NOT AVBL
$$

WIZ011>013-019>022-031-037>040-048>050-221600-
NORTHEAST WISCONSIN

CITY           SKY/WX    TMP DP  RH WIND       PRES   REMARKS
ANTIGO         SUNNY     73  69  87 S8        30.02S
SHAWANO        SUNNY     81  70  69 S6        30.00S HX  84
OCONTO         SUNNY     78  70  76 SW7       30.00S HX  80
STURGEON BAY   NOT AVBL
GREEN BAY      SUNNY     80  71  74 S10       30.02S HX  84
MANITOWOC      SUNNY     81  71  71 MISG      30.04R HX  85
APPLETON       MOSUNNY   81  66  61 S9        30.02R HX  83
CLINTONVILLE   MOSUNNY   81  70  69 S8        30.00F HX  84
OSHKOSH        SUNNY     80  70  71 S12       30.03R HX  83
$$

WIZ032>034-041-042-053>061-221600-
SOUTHWEST WISCONSIN

CITY           SKY/WX    TMP DP  RH WIND       PRES   REMARKS
LA CROSSE      SUNNY     83  70  64 S18       29.94S HX  87
SPARTA         CLOUDY    80  69  68 S9        29.97S HX  83
VIROQUA        SUNNY     79  71  75 S5        30.00S HX  82
BOSCOBEL       SUNNY     83  69  62 S7        30.00R HX  86
PRAIRIE DU CHI SUNNY     81  66  61 S3        29.98S HX  83
PLATTEVILLE    SUNNY     79  72  78 S12       30.03S HX  82
$$

WIZ056-057-062-063-064-067-068-221600-
SOUTH CENTRAL WISCONSIN

CITY           SKY/WX    TMP DP  RH WIND       PRES   REMARKS
REEDSBURG      SUNNY     79  71  74 S7        30.02S HX  82
BARABOO/DELLS  SUNNY     79  67  66 S9        30.03R HX  81
LONE ROCK      SUNNY     81  71  71 S9        30.01S HX  85
MINERAL POINT  SUNNY     79  72  78 S10       30.04R HX  82
MADISON        MOSUNNY   79  69  71 S9        30.04R HX  81
MIDDLETON      SUNNY     80  69  70 S5        30.05R HX  82
WATERTOWN      SUNNY     79  72  78 SW7       30.05R HX  82
MONROE         SUNNY     77  68  73 S8        30.06R
JANESVILLE     MOSUNNY   82  68  61 S12       30.05S HX  85
$$

WIZ051-052-058>065-066-070>072-221600-
SOUTHEAST WISCONSIN

CITY           SKY/WX    TMP DP  RH WIND       PRES   REMARKS
MILWAUKEE      MOSUNNY   85  69  58 SW12      30.05S HX  89
WAUKESHA       SUNNY     77  66  69 SW5       30.08R
MILWAUKEE/TIMM SUNNY     81  64  57 SW6       30.06S HX  82
RACINE         SUNNY     84  71  65 S6        30.08R HX  89
BURLINGTON     SUNNY     82  71  68 SW5       30.06R HX  87
KENOSHA        SUNNY     86  69  56 W13       30.07R HX  90
FOND DU LAC    SUNNY     81  68  64 SW9       30.04R HX  84
SHEBOYGAN      SUNNY     81  73  76 SW7       30.05R HX  86
WEST BEND        N/A     79  70  73 SW5       30.05S HX  81
JUNEAU         SUNNY     77  69  75 S7        30.06S
$$

LSZ147-162-221600-
LAKE SUPERIOR

STATION/POSITION TIME  TEMP    WIND        PRES    WAVE
                       AIR SEA DIR/SP/G            HT/PER
                 (UTC) (F)     (DEG/KT/KT) (MB)    (FT/S)
W MID LAKE BUOY  1350   60 54  280/  4/  6 1012.8R   1/ 4
DEVILS ISLAND    1400   63     300/ 16/ 18 1013.8R
PORT WING        1420   62      60/  2/ 11 1012.9R
SAXON HARBOR     1440   67      50/  5/  7 1013.2R
$$

LMZ867-665-643>646-221600-
LAKE MICHIGAN

STATION/POSITION TIME  TEMP    WIND        PRES    WAVE
                       AIR SEA DIR/SP/G            HT/PER
                 (UTC) (F)     (DEG/KT/KT) (MB)    (FT/S)
S GREEN BAY BUOY 1430   71 67  220/  6/  6 1016.1R
N MID LAKE BUOY  1350   68 66  180/ 14/ 16 1016.4F   2/ 3
NORTHPORT PIER   1440   75     160/  5/  8 1016.3R
KEWAUNEE LAKESHO 1430   64     160/  5/  6 1016.0R
SHEBOYGAN LAKESH 1400   72     180/  8/  9 1016.6S
PORT WASHINGTON  1430   76     170/  2/  4 1018.3R
ATWATER BUOY     1309   76 65  230/ 10/ 14 1017.3F
MILWAUKEE LAKESH 1430   82     240/  8/ 10   N/A
S MID LAKE BUOY  1350   71 69  150/ 10/ 10 1018.2R   1
KENOSHA   LAKESH 1400   73     180/  9/ 13 1017.6
$$

TC  - TEMPERATURE IN CELSIUS
VSB - VISIBILITY IN STATUTE MILES
WCI - WIND CHILL INDEX
HX  - HEAT INDEX





USA.gov is the U.S. government's official web portal to all federal, state and local government web resources and services.